Weather History for Show Low, AZ

Change the Weather History Date:

Monday, June 24, 2013

  Actual Average Record
Temperature  
Mean Temperature 68 °F -  
Max Temperature 80 °F 82 °F 97 °F (1990)
Min Temperature 57 °F 64 °F 38 °F (1976)
Cooling Degree Days 4    
Growing Degree Days 18 (Base 50)    
Moisture  
Dew Point 15 °F    
Average Humidity 14    
Maximum Humidity 23    
Minimum Humidity 7    
Precipitation  
Precipitation 0.00 in - - ()
Sea Level Pressure  
Sea Level Pressure 30.11 in    
Wind  
Wind Speed 14 mph (SSW)    
Max Wind Speed 28 mph    
Max Gust Speed 39 mph    
Visibility 10 miles    
Events      
Averages and records for this station are not official NWS values.
T = Trace of Precipitation, MM = Missing Value Source: NWS Daily Summary

Daily Weather History Graph

Daily Weather History Graph

Search for Another Location

Airport:

Trip Planner

Search our weather history database for the weather conditions in past years. The results will help you decide how hot, cold, wet, or windy it might be!

Date:

Astronomy

Jun. 24, 2013 Rise Set
Actual Time 5:09 AM MST 7:35 PM MST
Civil Twilight 4:39 AM MST 8:05 PM MST
Nautical Twilight 4:03 AM MST 8:41 PM MST
Astronomical Twilight 3:24 AM MST 9:20 PM MST
Moon 8:46 PM MST (6/24) 6:36 AM MST (6/24)
Length of Visible Light 15h 25m
Length of Day
14h 26m
Full, 97% of the Moon is Illuminated
Jun 24
Full
Jun 29
Last Quarter
Jul 8
New
Jul 15
First Quarter
Jul 22
Full

Hourly Weather History & Observations

Time (MST) Temp. Dew Point Humidity Pressure Visibility Wind Dir Wind Speed Gust Speed Precip Events Conditions
12:15 AM 59.0 °F 19.4 °F 22% 30.08 in 10.0 mi South 10.4 mph - N/A   Clear
12:35 AM 59.0 °F 19.4 °F 22% 30.07 in 10.0 mi South 9.2 mph - N/A   Clear
12:55 AM 59.0 °F 17.6 °F 20% 30.07 in 10.0 mi South 10.4 mph - N/A   Clear
1:15 AM 59.0 °F 17.6 °F 20% 30.07 in 10.0 mi South 9.2 mph - N/A   Clear
1:35 AM 59.0 °F 17.6 °F 20% 30.07 in 10.0 mi South 9.2 mph - N/A   Clear
1:55 AM 59.0 °F 17.6 °F 20% 30.07 in 10.0 mi South 9.2 mph - N/A   Clear
2:15 AM 60.8 °F 15.8 °F 17% 30.07 in 10.0 mi South 9.2 mph - N/A   Clear
2:35 AM 60.8 °F 15.8 °F 17% 30.07 in 10.0 mi South 10.4 mph - N/A   Clear
2:55 AM 62.6 °F 15.8 °F 16% 30.07 in 10.0 mi SSW 9.2 mph - N/A   Clear
3:15 AM 60.8 °F 15.8 °F 17% 30.07 in 10.0 mi South 8.1 mph - N/A   Clear
3:35 AM 59.0 °F 15.8 °F 19% 30.07 in 10.0 mi South 9.2 mph - N/A   Clear
3:55 AM 59.0 °F 15.8 °F 19% 30.07 in 10.0 mi South 11.5 mph - N/A   Clear
4:15 AM 60.8 °F 15.8 °F 17% 30.08 in 10.0 mi South 11.5 mph - N/A   Clear
4:35 AM 59.0 °F 15.8 °F 19% 30.08 in 10.0 mi SSW 11.5 mph - N/A   Clear
4:55 AM 59.0 °F 15.8 °F 19% 30.10 in 10.0 mi SSW 10.4 mph - N/A   Clear
5:15 AM 60.8 °F 15.8 °F 17% 30.10 in 10.0 mi South 16.1 mph - N/A   Clear
5:35 AM 59.0 °F 15.8 °F 19% 30.10 in 10.0 mi South 15.0 mph - N/A   Clear
5:55 AM 59.0 °F 17.6 °F 20% 30.09 in 10.0 mi South 13.8 mph - N/A   Clear
6:15 AM 59.0 °F 17.6 °F 20% 30.10 in 10.0 mi South 16.1 mph - N/A   Clear
6:35 AM 60.8 °F 17.6 °F 19% 30.11 in 10.0 mi South 18.4 mph - N/A   Clear
6:55 AM 62.6 °F 17.6 °F 18% 30.10 in 10.0 mi South 20.7 mph 26.5 mph N/A   Clear
7:15 AM 64.4 °F 17.6 °F 16% 30.11 in 10.0 mi South 21.9 mph 26.5 mph N/A   Clear
7:35 AM 66.2 °F 15.8 °F 14% 30.11 in 10.0 mi SSW 25.3 mph 29.9 mph N/A   Clear
7:55 AM 68.0 °F 12.2 °F 12% 30.12 in 10.0 mi SSW 23.0 mph 32.2 mph N/A   Clear
8:15 AM 68.0 °F 10.4 °F 11% 30.12 in 10.0 mi SSW 20.7 mph 35.7 mph N/A   Clear
8:35 AM 69.8 °F 8.6 °F 9% 30.13 in 10.0 mi SSW 25.3 mph 34.5 mph N/A   Clear
8:55 AM 71.6 °F 10.4 °F 9% 30.14 in 10.0 mi SSW 20.7 mph 31.1 mph N/A   Clear
9:15 AM 71.6 °F 10.4 °F 9% 30.14 in 10.0 mi South 23.0 mph 32.2 mph N/A   Clear
9:35 AM 73.4 °F 8.6 °F 8% 30.14 in 10.0 mi SW 27.6 mph 39.1 mph N/A   Clear
9:55 AM 73.4 °F 8.6 °F 8% 30.14 in 10.0 mi SSW 24.2 mph 33.4 mph N/A   Clear
10:15 AM 73.4 °F 8.6 °F 8% 30.14 in 10.0 mi SSW 21.9 mph 35.7 mph N/A   Clear
10:35 AM 75.2 °F 6.8 °F 7% 30.14 in 10.0 mi SW 26.5 mph 34.5 mph N/A   Clear
10:55 AM 75.2 °F 8.6 °F 8% 30.14 in 10.0 mi SSW 23.0 mph 35.7 mph N/A   Clear
11:15 AM 77.0 °F 8.6 °F 7% 30.14 in 10.0 mi SSW 23.0 mph 33.4 mph N/A   Clear
11:35 AM 77.0 °F 10.4 °F 8% 30.14 in 10.0 mi SW 24.2 mph 29.9 mph N/A   Clear
11:55 AM 77.0 °F 12.2 °F 9% 30.14 in 9.0 mi SSW 20.7 mph 29.9 mph N/A   Clear
12:15 PM 77.0 °F 10.4 °F 8% 30.14 in 10.0 mi South 20.7 mph 32.2 mph N/A   Clear
12:35 PM 77.0 °F 12.2 °F 9% 30.13 in 10.0 mi SSW 24.2 mph 32.2 mph N/A   Clear
12:55 PM 77.0 °F 10.4 °F 8% 30.13 in 10.0 mi SSW 18.4 mph 32.2 mph N/A   Clear
1:15 PM 77.0 °F 10.4 °F 8% 30.12 in 10.0 mi SSW 19.6 mph 27.6 mph N/A   Clear
1:35 PM 78.8 °F 10.4 °F 7% 30.12 in 10.0 mi SSW 21.9 mph 28.8 mph N/A   Clear
1:55 PM 80.6 °F 14.0 °F 8% 30.12 in 10.0 mi SSW 18.4 mph 27.6 mph N/A   Clear
2:15 PM 80.6 °F 15.8 °F 9% 30.11 in 10.0 mi SSW 24.2 mph 32.2 mph N/A   Clear
2:35 PM 80.6 °F 15.8 °F 9% 30.11 in 10.0 mi South 24.2 mph 35.7 mph N/A   Clear
2:55 PM 80.6 °F 17.6 °F 10% 30.10 in 10.0 mi South 24.2 mph 29.9 mph N/A   Clear
3:15 PM 80.6 °F 15.8 °F 9% 30.10 in 10.0 mi SSW 21.9 mph 32.2 mph N/A   Clear
3:35 PM 80.6 °F 14.0 °F 8% 30.10 in 10.0 mi SW 25.3 mph 34.5 mph N/A   Clear
3:55 PM 80.6 °F 14.0 °F 8% 30.10 in 10.0 mi SW 24.2 mph 27.6 mph N/A   Clear
4:15 PM 78.8 °F 15.8 °F 9% 30.10 in 10.0 mi SW 21.9 mph 32.2 mph N/A   Clear
4:35 PM 80.6 °F 15.8 °F 9% 30.10 in 10.0 mi SW 25.3 mph 32.2 mph N/A   Clear
4:55 PM 77.0 °F 17.6 °F 11% 30.10 in 10.0 mi WSW 18.4 mph 26.5 mph N/A   Clear
5:15 PM 77.0 °F 19.4 °F 12% 30.10 in 10.0 mi SW 18.4 mph 25.3 mph N/A   Clear
5:35 PM 75.2 °F 17.6 °F 11% 30.11 in 10.0 mi SW 18.4 mph 24.2 mph N/A   Clear
5:55 PM 75.2 °F 15.8 °F 11% 30.11 in 10.0 mi SW 17.3 mph 23.0 mph N/A   Clear
6:15 PM 75.2 °F 15.8 °F 11% 30.11 in 10.0 mi SW 19.6 mph 25.3 mph N/A   Clear
6:35 PM 73.4 °F 17.6 °F 12% 30.11 in 10.0 mi SW 12.7 mph 21.9 mph N/A   Clear
6:55 PM 71.6 °F 17.6 °F 13% 30.11 in 10.0 mi SW 12.7 mph - N/A   Clear
7:15 PM 71.6 °F 17.6 °F 13% 30.11 in 10.0 mi SW 11.5 mph - N/A   Clear
7:35 PM 69.8 °F 17.6 °F 14% 30.12 in 10.0 mi SW 10.4 mph - N/A   Clear
7:55 PM 68.0 °F 17.6 °F 15% 30.12 in 10.0 mi SSW 9.2 mph - N/A   Clear
8:15 PM 66.2 °F 19.4 °F 17% 30.13 in 10.0 mi SSW 8.1 mph - N/A   Clear
8:35 PM 66.2 °F 19.4 °F 17% 30.13 in 10.0 mi SSW 8.1 mph - N/A   Clear
8:55 PM 64.4 °F 19.4 °F 18% 30.14 in 10.0 mi SSW 8.1 mph - N/A   Clear
9:15 PM 64.4 °F 19.4 °F 18% 30.15 in 10.0 mi SSW 6.9 mph - N/A   Clear
9:35 PM 64.4 °F 19.4 °F 18% 30.16 in 10.0 mi SSW 6.9 mph - N/A   Clear
9:55 PM 62.6 °F 19.4 °F 19% 30.16 in 10.0 mi SSW 6.9 mph - N/A   Clear
10:15 PM 60.8 °F 19.4 °F 20% 30.16 in 10.0 mi South 4.6 mph - N/A   Clear
10:35 PM 57.2 °F 19.4 °F 23% 30.16 in 10.0 mi Calm Calm - N/A   Clear
10:55 PM 57.2 °F 17.6 °F 21% 30.16 in 9.0 mi SSE 6.9 mph - N/A   Clear
11:15 PM 57.2 °F 17.6 °F 21% 30.16 in 8.0 mi SSE 8.1 mph - N/A   Clear
11:35 PM 59.0 °F 19.4 °F 22% 30.16 in 10.0 mi South 6.9 mph - N/A   Clear
11:55 PM 57.2 °F 19.4 °F 23% 30.17 in 10.0 mi South 5.8 mph - N/A   Clear